Location: Hancock Field Station
(44.9202°N, 120.4259°W)
Time: 21:20:27
(UTC-07:00)

Nadezhda 4 Rocket - Visible Passes

Search period start: 04 August 2015 00:00
Search period end: 14 August 2015 00:00
Orbit: 950 x 992 km, 82.9° (Epoch: 04 August)

Date Brightness Start Highest point End Pass type
(mag) Time Alt. Az. Time Alt. Az. Time Alt. Az.
04 Aug 5.5 21:42:16 10° NNW 21:47:59 36° W 21:53:37 10° SSW visible
05 Aug 6.3 22:07:10 10° NW 22:11:50 21° W 22:16:17 10° SW visible
06 Aug 4.3 20:44:51 10° N 20:51:11 76° W 20:57:30 10° S visible
06 Aug 6.8 22:33:13 10° WNW 22:35:32 12° WNW 22:37:27 10° W visible
07 Aug 5.2 21:09:13 10° NNW 21:15:12 45° W 21:21:07 10° SSW visible
08 Aug 6.1 21:33:55 10° NNW 21:39:05 26° W 21:44:06 10° SW visible
09 Aug 6.7 21:59:17 10° NW 22:02:52 15° W 22:06:05 10° WSW visible
10 Aug 4.9 20:36:13 10° NNW 20:42:24 55° W 20:48:31 10° SSW visible
11 Aug 5.9 21:00:46 10° NNW 21:06:20 32° W 21:11:47 10° SSW visible
12 Aug 6.6 21:25:47 10° NW 21:30:08 19° W 21:34:14 10° WSW visible
13 Aug 7.2 21:52:57 10° WNW 21:53:49 10° WNW 21:54:15 10° W visible
